Location: Misciano
(43.5000°N, 11.9500°E)
Time: 05:33:42
(UTC+00:00)

Sich 1 - Pass Details

Date: 13 August 2020
Orbit: 593 x 626 km, 82.5° (Epoch: 19 September)

Event Time Altitude Azimuth Distance (km) Brightness Sun altitude
Rises 19:31:34 0° 199° (SSW) 2,895 6.3 -12.7°
Reaches altitude 10° 19:33:49 10° 204° (SSW) 1,995 5.6 -13.0°
Maximum altitude 19:38:09 53° 281° (WNW) 772 3.9 -13.6°
Drops below altitude 10° 19:42:31 10° 359° (N) 2,009 6.2 -14.3°
Sets 19:44:49 0° 4° (N) 2,919 7.0 -14.6°
